Weather History for Lihue, HI

Change the Weather History Date:

Wednesday, October 22, 2014

  Actual Average Record
Temperature  
Mean Temperature 81 °F 78 °F  
Max Temperature 85 °F 83 °F 87 °F (1984)
Min Temperature 76 °F 73 °F 63 °F (1965)
Degree Days  
Heating Degree Days 0 0  
Month to date heating degree days 0 0  
Since 1 July heating degree days 0 0  
Cooling Degree Days 16 13  
Month to date cooling degree days 344 297  
Year to date cooling degree days 3339 3256  
Growing Degree Days 30 (Base 50)    
Moisture  
Dew Point 73 °F    
Average Humidity 79    
Maximum Humidity 88    
Minimum Humidity 70    
Precipitation  
Precipitation 0.24 in 0.14 in 0.24 in (2014)
Month to date precipitation 1.60 2.53  
Year to date precipitation 27.17 26.10  
Snow  
Snow 0.00 in - - ()
Month to date snowfall 0.0  
Since 1 July snowfall 0.0  
Since 1 September snowfall 0.0  
Snow Depth 0.00 in    
Sea Level Pressure  
Sea Level Pressure 30.00 in    
Wind  
Wind Speed 9 mph (East)    
Max Wind Speed 14 mph    
Max Gust Speed 16 mph    
Visibility 10 miles    
Events Rain    
T = Trace of Precipitation, MM = Missing Value Source: NWS Daily Summary

Daily Weather History Graph

Daily Weather History Graph

Search for Another Location

Airport:

Trip Planner

Search our weather history database for the weather conditions in past years. The results will help you decide how hot, cold, wet, or windy it might be!

Date:

Astronomy

Oct. 22, 2014 Rise Set
Actual Time 6:36 AM HST 6:06 PM HST
Civil Twilight 6:13 AM HST 6:29 PM HST
Nautical Twilight 5:47 AM HST 6:55 PM HST
Astronomical Twilight 5:21 AM HST 7:21 PM HST
Moon 5:36 AM HST (10/22) 5:35 PM HST (10/22)
Length of Visible Light 12h 15m
Length of Day
11h 30m
Waning Crescent, 1% of the Moon is Illuminated
Oct 22
Waning Crescent
Oct 23
New
Oct 30
First Quarter
Nov 6
Full
Nov 14
Last Quarter

Hourly Weather History & Observations

Time (HST) Temp. Heat Index Dew Point Humidity Pressure Visibility Wind Dir Wind Speed Gust Speed Precip Events Conditions
12:53 AM 79.0 °F - 73.0 °F 82% 30.00 in 10.0 mi East 12.7 mph - N/A   Mostly Cloudy
1:53 AM 79.0 °F - 73.0 °F 82% 29.99 in 10.0 mi ESE 10.4 mph - N/A   Overcast
2:53 AM 78.1 °F - 73.0 °F 84% 29.97 in 10.0 mi ESE 9.2 mph - 0.01 in   Mostly Cloudy
3:44 AM 78.8 °F - 73.4 °F 83% 29.97 in 10.0 mi ESE 10.4 mph - N/A   Scattered Clouds
3:53 AM 78.1 °F - 72.0 °F 81% 29.96 in 10.0 mi East 8.1 mph - N/A   Partly Cloudy
4:26 AM 78.8 °F - 73.4 °F 83% 29.97 in 10.0 mi ESE 9.2 mph - N/A   Mostly Cloudy
4:53 AM 79.0 °F - 73.0 °F 82% 29.97 in 10.0 mi East 10.4 mph - N/A   Mostly Cloudy
5:21 AM 78.8 °F - 71.6 °F 78% 29.98 in 10.0 mi ESE 10.4 mph - N/A   Scattered Clouds
5:53 AM 78.1 °F - 72.0 °F 81% 29.98 in 10.0 mi ESE 5.8 mph - N/A   Partly Cloudy
6:22 AM 77.0 °F - 71.6 °F 83% 29.99 in 10.0 mi Calm Calm - 0.01 in   Mostly Cloudy
6:35 AM 77.0 °F - 71.6 °F 83% 30.00 in 10.0 mi Calm Calm - 0.01 in   Scattered Clouds
6:53 AM 77.0 °F - 73.0 °F 88% 30.00 in 10.0 mi WSW 4.6 mph - 0.02 in   Scattered Clouds
7:53 AM 77.0 °F - 73.0 °F 88% 30.02 in 10.0 mi WSW 3.5 mph - N/A   Mostly Cloudy
8:53 AM 79.0 °F - 73.9 °F 84% 30.04 in 10.0 mi WSW 4.6 mph - N/A   Mostly Cloudy
9:53 AM 82.9 °F 89.4 °F 73.9 °F 74% 30.05 in 10.0 mi ESE 9.2 mph - N/A   Mostly Cloudy
10:20 AM 82.4 °F 88.2 °F 73.4 °F 74% 30.05 in 10.0 mi East 8.1 mph - N/A   Scattered Clouds
10:53 AM 84.0 °F 91.2 °F 73.9 °F 72% 30.04 in 10.0 mi East 8.1 mph - 0.01 in   Clear
11:53 AM 84.0 °F 91.2 °F 73.9 °F 72% 30.02 in 10.0 mi East 11.5 mph - N/A   Scattered Clouds
12:00 PM 84.2 °F 92.3 °F 75.2 °F 74% 30.02 in 10.0 mi East 11.5 mph - N/A   Mostly Cloudy
12:46 PM 84.2 °F 90.9 °F 73.4 °F 70% 30.01 in 10.0 mi East 10.4 mph - 0.04 in   Scattered Clouds
12:53 PM 84.0 °F 91.2 °F 73.9 °F 72% 30.00 in 10.0 mi East 10.4 mph - 0.04 in   Scattered Clouds
1:53 PM 84.0 °F 91.9 °F 75.0 °F 74% 29.97 in 10.0 mi East 11.5 mph - 0.05 in   Scattered Clouds
2:14 PM 82.4 °F 88.2 °F 73.4 °F 74% 29.98 in 10.0 mi East 10.4 mph - N/A   Mostly Cloudy
2:32 PM 82.4 °F 88.2 °F 73.4 °F 74% 29.98 in 10.0 mi East 9.2 mph - 0.05 in   Scattered Clouds
2:53 PM 82.9 °F 88.8 °F 73.0 °F 72% 29.96 in 10.0 mi East 9.2 mph - 0.06 in   Mostly Cloudy
3:40 PM 82.4 °F 88.2 °F 73.4 °F 74% 29.97 in 10.0 mi East 9.2 mph - 0.04 in   Overcast
3:53 PM 82.0 °F 88.6 °F 75.0 °F 79% 29.96 in 10.0 mi ENE 10.4 mph - 0.05 in   Scattered Clouds
4:53 PM 81.0 °F 85.8 °F 73.0 °F 77% 29.97 in 10.0 mi East 8.1 mph - 0.03 in   Clear
5:44 PM 80.6 °F 85.4 °F 73.4 °F 79% 29.99 in 10.0 mi East 8.1 mph - 0.05 in   Mostly Cloudy
5:53 PM 80.1 °F 84.2 °F 73.0 °F 79% 29.99 in 10.0 mi East 9.2 mph - 0.05 in   Mostly Cloudy
6:53 PM 79.0 °F - 72.0 °F 79% 30.00 in 10.0 mi East 9.2 mph - 0.02 in   Scattered Clouds
7:01 PM 78.8 °F - 73.4 °F 83% 30.01 in 10.0 mi East 8.1 mph - N/A   Mostly Cloudy
7:11 PM 78.8 °F - 73.4 °F 83% 30.01 in 10.0 mi East 8.1 mph - N/A   Scattered Clouds
7:53 PM 78.1 °F - 72.0 °F 81% 30.01 in 10.0 mi ENE 6.9 mph - N/A   Partly Cloudy
8:53 PM 78.1 °F - 72.0 °F 81% 30.02 in 10.0 mi East 8.1 mph - N/A   Scattered Clouds
9:44 PM 78.8 °F - 73.4 °F 83% 30.03 in 9.0 mi East 11.5 mph - 0.00 in Rain Light Rain
9:53 PM 78.1 °F - 73.0 °F 84% 30.03 in 10.0 mi East 11.5 mph - 0.00 in   Mostly Cloudy
10:18 PM 78.8 °F - 73.4 °F 83% 30.03 in 10.0 mi East 11.5 mph - N/A   Partly Cloudy
10:53 PM 78.1 °F - 73.0 °F 84% 30.02 in 10.0 mi East 9.2 mph - N/A   Scattered Clouds
11:37 PM 78.8 °F - 73.4 °F 83% 30.02 in 10.0 mi East 10.4 mph - N/A   Mostly Cloudy
11:44 PM 78.8 °F - 73.4 °F 83% 30.02 in 10.0 mi East 10.4 mph - N/A   Mostly Cloudy
11:53 PM 78.1 °F - 73.0 °F 84% 30.01 in 10.0 mi East 10.4 mph - N/A   Overcast